DB0ASF-4 Weather Reports


Display with metric or nautical units.
time (UTC)temp
F
wind
direction
speed
MPH
gust
MPH
rain 1hr
in
rain 24hr
in
rain mn
in
humidity
%
barometer
mb
20201029231534 50 157 0.0 0.0 0.00 0.18 0.00 93 1010.4
20201029230041 50 112 0.0 0.0 0.00 0.18 0.00 93 1010.5
20201029224534 50 247 0.0 0.0 0.00 0.18 0.00 93 1010.5
20201029223106 50 22 0.0 0.0 0.00 0.18 0.00 93 1010.7
20201029221536 50 202 0.0 0.0 0.00 0.18 0.00 93 1011.0
20201029220039 49 90 0.0 0.0 0.02 0.18 0.00 93 1011.0
20201029214537 49 112 0.0 0.0 0.02 0.18 0.00 93 1011.4
20201029213039 49 135 0.0 0.0 0.02 0.18 0.00 93 1011.4
20201029211536 49 270 0.0 0.0 0.02 0.18 0.00 92 1011.5
20201029210211 49 0 52.0 0.0 0.02 0.16 0.00 92 1011.7
20201029204554 49 135 0.0 0.0 0.02 0.16 0.00 92 1012.0
20201029203051 49 135 0.0 0.0 0.02 0.16 0.00 92 1012.0
20201029201537 49 157 0.0 0.0 0.02 0.16 0.00 92 1011.9
20201029200043 49 135 0.0 0.0 0.00 0.14 0.00 92 1011.9
20201029194610 49 22 0.0 0.0 0.00 0.14 0.00 92 1012.0
20201029193106 49 112 0.0 0.0 0.00 0.14 0.00 92 1011.9
20201029191538 49 292 0.0 0.0 0.00 0.14 0.00 92 1011.9
20201029190054 49 315 0.0 0.0 0.02 0.14 0.00 91 1011.7
20201029184535 49 292 0.0 0.0 0.02 0.14 0.00 91 1011.9
20201029183037 49 180 0.0 0.0 0.02 0.14 0.00 91 1012.0
20201029181545 49 315 0.0 0.0 0.02 0.14 0.00 91 1012.0
20201029180044 49 315 0.0 0.0 0.00 0.12 0.00 91 1011.9
20201029174542 49 292 0.0 0.0 0.00 0.12 0.00 91 1011.7
20201029173059 49 315 0.0 0.0 0.00 0.12 0.00 90 1011.7
20201029171537 49 90 0.0 0.0 0.00 0.12 0.00 90 1011.5
20201029170047 49 202 0.0 0.0 0.00 0.12 0.00 90 1011.4
20201029164537 49 270 0.0 0.0 0.00 0.12 0.00 90 1011.4
20201029163038 49 270 0.0 0.0 0.02 0.12 0.00 90 1011.2
20201029161538 49 225 0.0 0.0 0.02 0.12 0.00 89 1011.2
20201029160037 49 270 0.0 0.0 0.02 0.12 0.00 89 1011.0
20201029154535 49 90 0.0 0.0 0.02 0.12 0.00 89 1011.0
20201029153037 49 180 0.0 0.0 0.00 0.10 0.00 88 1010.9
20201029151547 49 112 0.0 0.0 0.00 0.10 0.00 88 1011.0
20201029150038 50 180 0.0 0.0 0.02 0.10 0.00 88 1010.9
20201029144541 50 180 0.0 0.0 0.02 0.10 0.00 88 1010.7
20201029143040 50 270 0.0 0.0 0.02 0.10 0.00 87 1010.5
20201029141559 50 270 0.0 0.0 0.04 0.10 0.00 86 1010.5
20201029140036 51 180 0.0 0.0 0.02 0.08 0.00 85 1010.5
20201029134542 51 135 0.0 0.0 0.02 0.08 0.00 84 1010.4
20201029133039 52 202 0.0 0.0 0.02 0.08 0.00 83 1010.2
20201029131536 52 202 0.0 0.0 0.00 0.06 0.00 83 1010.0
20201029130050 53 225 0.0 0.0 0.00 0.06 0.00 81 1010.0
20201029124553 53 180 0.0 0.0 0.00 0.06 0.00 79 1010.0
20201029123036 54 157 0.0 0.0 0.00 0.06 0.00 77 1009.7
20201029121534 55 315 0.0 0.0 0.00 0.06 0.00 76 1010.0
20201029120039 56 135 0.0 0.0 0.00 0.06 0.00 78 1009.7
20201029114534 55 180 0.0 0.0 0.00 0.06 0.00 78 1009.5
20201029113036 56 135 0.0 0.0 0.00 0.06 0.00 77 1009.5
20201029111535 57 157 0.0 0.0 0.00 0.06 0.00 76 1009.5
20201029110036 56 247 0.0 0.0 0.00 0.06 0.00 76 1009.5
20201029104539 56 270 0.0 0.0 0.00 0.06 0.00 76 1009.5
20201029103103 57 270 0.0 0.0 0.00 0.06 0.00 76 1009.5
20201029101536 57 270 0.0 0.0 0.00 0.06 0.00 78 1009.4
20201029100038 55 90 3.0 0.0 0.00 0.06 0.00 80 1009.2
20201029094535 54 157 0.0 0.0 0.00 0.06 0.00 82 1008.9
20201029093034 53 0 0.0 0.0 0.00 0.06 0.00 85 1008.7
20201029091534 52 112 1.0 0.0 0.00 0.06 0.00 88 1008.5
20201029090034 50 135 0.0 0.0 0.00 0.06 0.00 91 1008.4
20201029084552 49 135 0.0 0.0 0.00 0.06 0.00 92 1008.0
20201029083050 48 247 0.0 0.0 0.00 0.06 0.00 92 1007.7
20201029081539 48 157 0.0 0.0 0.00 0.06 0.00 92 1007.7
20201029080035 47 112 0.0 0.0 0.00 0.06 0.00 92 1007.2
20201029074534 48 112 0.0 0.0 0.00 0.08 0.00 92 1007.0
20201029073116 48 157 0.0 0.0 0.00 0.08 0.00 92 1006.5
20201029071557 48 180 0.0 0.0 0.00 0.08 0.00 92 1006.4
20201029070039 48 157 0.0 0.0 0.00 0.08 0.00 92 1005.9
20201029064537 48 135 0.0 0.0 0.00 0.08 0.00 92 1005.7
20201029063044 47 112 0.0 0.0 0.00 0.08 0.00 91 1005.5
20201029061548 47 202 0.0 0.0 0.00 0.08 0.00 91 1005.2
20201029060051 48 315 0.0 0.0 0.02 0.08 0.00 91 1005.0
20201029054534 48 315 0.0 0.0 0.02 0.08 0.00 91 1004.7
20201029053035 48 202 0.0 0.0 0.02 0.08 0.00 91 1004.7
20201029051534 48 315 0.0 0.0 0.02 0.08 0.00 90 1004.5
20201029050034 48 157 0.0 0.0 0.00 0.08 0.00 90 1004.4
20201029044540 49 247 0.0 0.0 0.02 0.08 0.00 90 1004.2
20201029043044 49 270 0.0 0.0 0.02 0.08 0.00 90 1004.2
20201029041540 49 135 0.0 0.0 0.02 0.08 0.00 90 1004.0
20201029040041 50 202 0.0 0.0 0.02 0.08 0.00 89 9900.0
20201029034543 50 157 0.0 0.0 0.00 0.06 0.00 89 1003.9
20201029033034 50 315 0.0 0.0 0.00 0.06 0.00 89 1003.7
20201029031540 50 157 0.0 0.0 0.00 0.06 0.00 89 1003.7
20201029030046 50 225 0.0 0.0 0.00 0.06 0.00 88 1003.5
20201029024535 50 22 0.0 0.0 0.02 0.06 0.00 88 1003.2
20201029023034 51 180 0.0 0.0 0.02 0.06 0.00 88 1003.0
20201029021540 51 112 0.0 0.0 0.02 0.06 0.00 88 1003.0
20201029020034 51 135 0.0 0.0 0.02 0.06 0.00 87 1002.7
20201029014536 51 292 0.0 0.0 0.00 0.04 0.00 87 1002.5
20201029013043 51 112 0.0 0.0 0.00 0.04 0.00 86 1002.5
20201029011553 51 315 0.0 0.0 0.00 0.04 0.00 84 1002.5
20201029010105 52 180 0.0 0.0 0.00 0.04 0.00 82 1002.5
20201029004549 53 90 0.0 0.0 0.00 0.04 0.00 81 1002.5
20201029003100 53 135 0.0 0.0 0.00 0.04 0.00 79 1002.4
20201029001551 53 112 0.0 0.0 0.00 0.04 0.00 79 1002.2
20201029000059 53 180 0.0 0.0 0.00 0.04 0.00 79 1002.4
20201028234557 53 67 0.0 0.0 0.00 0.04 0.00 78 1002.4
20201028233058 53 202 0.0 0.0 0.00 0.04 0.00 78 1002.4